This is the latest recevied weather packets stored in our database for station/object KC7UNY-13. If no packets are shown the sender has not sent any weather packets the latest 10 day(s).
| Time | Temp. | Humidity | Pressure | Rain* | Wind** | Luminosity | Snow |
|---|---|---|---|---|---|---|---|
| 1777329774 | 28.89° C | 19% | 1011 hPa | 0 mm | - | 449 W/m² | - |
| 1777329472 | 27.78° C | 20% | 1011.1 hPa | 0 mm | - | 459 W/m² | - |
| 1777329169 | 28.33° C | 20% | 1011.1 hPa | 0 mm | - | 482 W/m² | - |
| 1777328866 | 28.33° C | 20% | 1011.1 hPa | 0 mm | - | 496 W/m² | - |
| 1777328564 | 29.44° C | 20% | 1011 hPa | 0 mm | - | 505 W/m² | - |
| 1777328262 | 28.33° C | 20% | 1011.4 hPa | 0 mm | - | 521 W/m² | - |
| 1777327960 | 27.22° C | 20% | 1011.3 hPa | 0 mm | - | 539 W/m² | - |
| 1777327658 | 27.22° C | 20% | 1011.5 hPa | 0 mm | - | 553 W/m² | - |
| 1777327355 | 27.22° C | 20% | 1011.4 hPa | 0 mm | - | 568 W/m² | - |
| 1777327052 | 27.78° C | 20% | 1011.7 hPa | 0 mm | - | 578 W/m² | - |
| 1777326749 | 27.22° C | 21% | 1011.7 hPa | 0 mm | - | 593 W/m² | - |
| 1777326446 | 27.22° C | 21% | 1011.9 hPa | 0 mm | - | 606 W/m² | - |
| 1777326144 | 27.78° C | 20% | 1011.7 hPa | 0 mm | - | 618 W/m² | - |
| 1777325841 | 27.22° C | 20% | 1011.9 hPa | 0 mm | - | 631 W/m² | - |
| 1777325540 | 27.22° C | 20% | 1012.1 hPa | 0 mm | - | 644 W/m² | - |
| 1777325237 | 27.22° C | 23% | 1012.2 hPa | 0 mm | - | 655 W/m² | - |
| 1777324934 | 27.22° C | 21% | 1012.2 hPa | 0 mm | - | 667 W/m² | - |
| 1777324631 | 27.22° C | 21% | 1012 hPa | 0 mm | - | 676 W/m² | - |
| 1777324329 | 27.22° C | 21% | 1012.2 hPa | 0 mm | - | 688 W/m² | - |
| 1777324026 | 26.67° C | 22% | 1012.1 hPa | 0 mm | - | 698 W/m² | - |
| 1777323723 | 26.67° C | 23% | 1012.3 hPa | 0 mm | - | 707 W/m² | - |
| 1777323420 | 27.22° C | 22% | 1012.2 hPa | 0 mm | - | 716 W/m² | - |
| 1777323117 | 27.22° C | 22% | 1012.3 hPa | 0 mm | - | 724 W/m² | - |
| 1777322816 | 26.67° C | 22% | 1012.4 hPa | 0 mm | - | 733 W/m² | - |
| 1777322513 | 26.67° C | 22% | 1012.5 hPa | 0 mm | - | 740 W/m² | - |
* Rain latest hour (hover to see other rain measurements)
** Current wind speed in m/s (hover to see current wind gust speed)